,,,PA_Meas_PMT16A,,PR_Meas_QMR101_102,,RH_Meas_QMH101,,SR_Meas_QMS101,,TA_Meas_QMH101,,GenWind,,GenWind,
date,time,status,PA,status,PR,status,RH,status,SR,status,TA,status,DirAvg,status,SpdAvg,
2012-12-27, 00:00:04,VALID,1007.78,VALID,0,VALID,104,VALID,0.112112,VALID,24.3937,VALID,72,VALID,0.56875,
2012-12-27, 00:01:04,VALID,1007.8,VALID,0,VALID,104,VALID,0,VALID,24.3956,VALID,72,VALID,0.525781,
2012-12-27, 00:02:04,VALID,1007.79,VALID,0,VALID,104,VALID,0,VALID,24.3761,VALID,72,VALID,0.705859,
2012-12-27, 00:03:04,VALID,1007.78,VALID,0,VALID,104,VALID,0,VALID,24.3761,VALID,72,VALID,0.476563,
2012-12-27, 00:04:04,VALID,1007.77,VALID,0,VALID,104,VALID,0,VALID,24.3547,VALID,71,VALID,0.857813,
2012-12-27, 00:05:04,VALID,1007.76,VALID,0,VALID,104,VALID,0,VALID,24.3761,VALID,75,VALID,0.891406,
2012-12-27, 00:06:04,VALID,1007.77,VALID,0,VALID,104,VALID,0,VALID,24.3566,VALID,75,VALID,0.612891,
2012-12-27, 00:07:04,VALID,1007.79,VALID,0,VALID,104,VALID,0,VALID,24.3158,VALID,77,VALID,0.25,
2012-12-27, 00:08:04,VALID,1007.77,VALID,0,VALID,104,VALID,0,VALID,24.3566,VALID,109,VALID,0.955469,
2012-12-27, 00:09:04,VALID,1007.76,VALID,0,VALID,104,VALID,0,VALID,24.3566,VALID,113,VALID,0.705078,
2012-12-27, 00:10:04,VALID,1007.74,VALID,0,VALID,104,VALID,0,VALID,24.3566,VALID,95,VALID,1.24805,
2012-12-27, 00:11:04,VALID,1007.77,VALID,0,VALID,104,VALID,0,VALID,24.3566,VALID,94,VALID,0.883984,
2012-12-27, 00:12:04,VALID,1007.76,VALID,0,VALID,104,VALID,0,VALID,24.3371,VALID,106,VALID,0.974219,
2012-12-27, 00:13:04,VALID,1007.75,VALID,0,VALID,104,VALID,0,VALID,24.3371,VALID,101,VALID,0.763281,
2012-12-27, 00:14:04,VALID,1007.76,VALID,0,VALID,104,VALID,0,VALID,24.3761,VALID,106,VALID,0.719922,
2012-12-27, 00:15:04,VALID,1007.74,VALID,0,VALID,104,VALID,0,VALID,24.3158,VALID,88,VALID,0.363672,
2012-12-27, 00:16:04,VALID,1007.73,VALID,0,VALID,104,VALID,0,VALID,24.3176,VALID,88,VALID,0.136719,
2012-12-27, 00:17:04,VALID,1007.71,VALID,0,VALID,104,VALID,0,VALID,24.3176,VALID,128,VALID,1.1668,
2012-12-27, 00:18:04,VALID,1007.69,VALID,0,VALID,104,VALID,0,VALID,24.3176,VALID,132,VALID,0.778516,
2012-12-27, 00:19:04,VALID,1007.67,VALID,0,VALID,104,VALID,0,VALID,24.3194,VALID,123,VALID,0.760938,
2012-12-27, 00:20:04,VALID,1007.69,VALID,0,VALID,104,VALID,0,VALID,24.2786,VALID,124,VALID,0.507813,
2012-12-27, 00:21:04,VALID,1007.68,VALID,0,VALID,104,VALID,0,VALID,24.2981,VALID,124,VALID,0.423047,
2012-12-27, 00:22:04,VALID,1007.67,VALID,0,VALID,104,VALID,0,VALID,24.2591,VALID,111,VALID,1.09648,
2012-12-27, 00:23:04,VALID,1007.64,VALID,0,VALID,104,VALID,0,VALID,24.2591,VALID,139,VALID,1.06445,
2012-12-27, 00:24:04,VALID,1007.65,VALID,0,VALID,104,VALID,0,VALID,24.2805,VALID,122,VALID,0.660156,
2012-12-27, 00:25:04,VALID,1007.63,VALID,0,VALID,104,VALID,0,VALID,24.261,VALID,124,VALID,0.690234,
2012-12-27, 00:26:04,VALID,1007.65,VALID,0,VALID,104,VALID,0,VALID,24.2202,VALID,119,VALID,0.851172,
2012-12-27, 00:27:04,VALID,1007.64,VALID,0,VALID,104,VALID,0,VALID,24.2202,VALID,117,VALID,0.763281,
2012-12-27, 00:28:04,VALID,1007.6,VALID,0,VALID,104,VALID,0,VALID,24.2202,VALID,112,VALID,0.698438,
2012-12-27, 00:29:04,VALID,1007.63,VALID,0,VALID,104,VALID,0,VALID,24.2025,VALID,123,VALID,0.999609,
2012-12-27, 00:30:04,VALID,1007.63,VALID,0,VALID,104,VALID,0,VALID,24.1812,VALID,135,VALID,0.775781,
2012-12-27, 00:31:04,VALID,1007.6,VALID,0,VALID,104,VALID,0,VALID,24.1988,VALID,135,VALID,0.798047,
2012-12-27, 00:32:04,VALID,1007.59,VALID,0,VALID,104,VALID,0,VALID,24.1617,VALID,122,VALID,0.643359,
2012-12-27, 00:33:04,VALID,1007.56,VALID,0,VALID,104,VALID,0,VALID,24.2007,VALID,122,VALID,0.601953,
2012-12-27, 00:34:04,VALID,1007.55,VALID,0,VALID,104,VALID,0,VALID,24.2007,VALID,123,VALID,0.539844,
2012-12-27, 00:35:04,VALID,1007.58,VALID,0,VALID,104,VALID,0,VALID,24.1812,VALID,124,VALID,0.603516,
2012-12-27, 00:36:04,VALID,1007.54,VALID,0,VALID,104,VALID,0,VALID,24.183,VALID,131,VALID,0.533203,
2012-12-27, 00:37:04,VALID,1007.53,VALID,0,VALID,104,VALID,0,VALID,24.1617,VALID,140,VALID,0.549219,
2012-12-27, 00:38:04,VALID,1007.5,VALID,0,VALID,104,VALID,0,VALID,24.1617,VALID,141,VALID,0.328125,
2012-12-27, 00:39:04,VALID,1007.48,VALID,0,VALID,104,VALID,0,VALID,24.1422,VALID,141,VALID,0.383984,
2012-12-27, 00:40:04,VALID,1007.49,VALID,0,VALID,104,VALID,0,VALID,24.1617,VALID,140,VALID,0.65,
2012-12-27, 00:41:04,VALID,1007.45,VALID,0,VALID,104,VALID,0,VALID,24.1617,VALID,142,VALID,0.401172,
2012-12-27, 00:42:04,VALID,1007.44,VALID,0,VALID,104,VALID,0,VALID,24.1422,VALID,141,VALID,0.590234,
2012-12-27, 00:43:04,VALID,1007.41,VALID,0,VALID,104,VALID,0,VALID,24.1422,VALID,140,VALID,0.33125,
2012-12-27, 00:44:04,VALID,1007.39,VALID,0,VALID,104,VALID,0,VALID,24.1422,VALID,140,VALID,0.421094,
2012-12-27, 00:45:04,VALID,1007.35,VALID,0,VALID,104,VALID,0,VALID,24.144,VALID,140,VALID,0.653125,
2012-12-27, 00:46:04,VALID,1007.34,VALID,0,VALID,104,VALID,0,VALID,24.1617,VALID,140,VALID,0.476563,
2012-12-27, 00:47:04,VALID,1007.33,VALID,0,VALID,104,VALID,0,VALID,24.1635,VALID,140,VALID,0.352734,
2012-12-27, 00:48:04,VALID,1007.33,VALID,0,VALID,104,VALID,0,VALID,24.1422,VALID,140,VALID,0.102734,
2012-12-27, 00:49:04,VALID,1007.34,VALID,0,VALID,104,VALID,0,VALID,24.1635,VALID,105,VALID,0.838672,
2012-12-27, 00:50:04,VALID,1007.29,VALID,0,VALID,104,VALID,0,VALID,24.1422,VALID,105,VALID,0.61875,
2012-12-27, 00:51:04,VALID,1007.3,VALID,0,VALID,104,VALID,0,VALID,24.183,VALID,109,VALID,0.391406,
2012-12-27, 00:52:04,VALID,1007.29,VALID,0,VALID,104,VALID,0,VALID,24.183,VALID,109,VALID,0.533594,
2012-12-27, 00:53:04,VALID,1007.28,VALID,0,VALID,104,VALID,0,VALID,24.1617,VALID,109,VALID,0.674219,
2012-12-27, 00:54:04,VALID,1007.25,VALID,0,VALID,104,VALID,0,VALID,24.1422,VALID,109,VALID,0.766797,
2012-12-27, 00:55:04,VALID,1007.24,VALID,0,VALID,104,VALID,0,VALID,24.1812,VALID,109,VALID,0.522656,
2012-12-27, 00:56:04,VALID,1007.22,VALID,0,VALID,104,VALID,0,VALID,24.1617,VALID,109,VALID,0.126953,
2012-12-27, 00:57:04,VALID,1007.2,VALID,0,VALID,104,VALID,0,VALID,24.1617,VALID,110,VALID,0.56875,
2012-12-27, 00:58:04,VALID,1007.17,VALID,0,VALID,104,VALID,0,VALID,24.1422,VALID,110,VALID,0.357812,
2012-12-27, 00:59:04,VALID,1007.15,VALID,0,VALID,104,VALID,0,VALID,24.1617,VALID,110,VALID,0.678906,
2012-12-27, 01:00:04,VALID,1007.17,VALID,0,VALID,104,VALID,0,VALID,24.1812,VALID,110,VALID,0.655469,
2012-12-27, 01:01:04,VALID,1007.1,VALID,0,VALID,104,VALID,0,VALID,24.183,VALID,113,VALID,0.566797,
2012-12-27, 01:02:04,VALID,1007.09,VALID,0,VALID,104,VALID,0,VALID,24.144,VALID,126,VALID,0.938281,
2012-12-27, 01:03:04,VALID,1007.05,VALID,0,VALID,104,VALID,0,VALID,24.1635,VALID,128,VALID,0.273828,
2012-12-27, 01:04:04,VALID,1007.03,VALID,0,VALID,104,VALID,0,VALID,24.1617,VALID,128,VALID,0.259375,
2012-12-27, 01:05:04,VALID,1007,VALID,0,VALID,104,VALID,0,VALID,24.1635,VALID,128,VALID,0.459375,
2012-12-27, 01:06:04,VALID,1007,VALID,0,VALID,104,VALID,0,VALID,24.1422,VALID,128,VALID,0.325781,
2012-12-27, 01:07:04,VALID,1006.96,VALID,0,VALID,104,VALID,0,VALID,24.1617,VALID,128,VALID,0.495703,
2012-12-27, 01:08:04,VALID,1006.93,VALID,0,VALID,104,VALID,0,VALID,24.1422,VALID,128,VALID,0.684766,
2012-12-27, 01:09:04,VALID,1006.92,VALID,0,VALID,104,VALID,0,VALID,24.1227,VALID,128,VALID,0.704297,
2012-12-27, 01:10:04,VALID,1006.9,VALID,0,VALID,104,VALID,0,VALID,24.1227,VALID,128,VALID,0.353906,
2012-12-27, 01:11:04,VALID,1006.9,VALID,0,VALID,104,VALID,0,VALID,24.1635,VALID,128,VALID,0.0777344,
2012-12-27, 01:12:04,VALID,1006.89,VALID,0,VALID,104,VALID,0,VALID,24.1032,VALID,100,VALID,0.666016,
2012-12-27, 01:13:04,VALID,1006.82,VALID,0,VALID,104,VALID,0,VALID,24.1227,VALID,100,VALID,0.780078,
2012-12-27, 01:14:04,VALID,1006.83,VALID,0,VALID,104,VALID,0,VALID,24.1422,VALID,101,VALID,0.476172,
2012-12-27, 01:15:04,VALID,1006.82,VALID,0,VALID,104,VALID,0,VALID,24.1422,VALID,101,VALID,0.817969,
2012-12-27, 01:16:04,VALID,1006.79,VALID,0,VALID,104,VALID,0,VALID,24.1227,VALID,101,VALID,0.542969,
2012-12-27, 01:17:04,VALID,1006.77,VALID,0,VALID,104,VALID,0,VALID,24.144,VALID,103,VALID,0.619141,
2012-12-27, 01:18:04,VALID,1006.77,VALID,0,VALID,104,VALID,0,VALID,24.1422,VALID,104,VALID,0.419922,
2012-12-27, 01:19:04,VALID,1006.76,VALID,0,VALID,104,VALID,0,VALID,24.1032,VALID,104,VALID,0.546484,
2012-12-27, 01:20:04,VALID,1006.77,VALID,0,VALID,104,VALID,0,VALID,24.1014,VALID,116,VALID,0.704297,
2012-12-27, 01:21:04,VALID,1006.79,VALID,0,VALID,104,VALID,0,VALID,24.1422,VALID,130,VALID,0.708594,
2012-12-27, 01:22:04,VALID,1006.76,VALID,0,VALID,104,VALID,0,VALID,24.1422,VALID,130,VALID,0.603516,
2012-12-27, 01:23:04,VALID,1006.76,VALID,0,VALID,104,VALID,0,VALID,24.1227,VALID,120,VALID,0.842188,
2012-12-27, 01:24:04,VALID,1006.75,VALID,0,VALID,104,VALID,0,VALID,24.0837,VALID,120,VALID,0.637891,
2012-12-27, 01:25:04,VALID,1006.76,VALID,0,VALID,104,VALID,0,VALID,24.1032,VALID,121,VALID,0.753516,
2012-12-27, 01:26:04,VALID,1006.75,VALID,0,VALID,104,VALID,0,VALID,24.1032,VALID,121,VALID,0.448438,
2012-12-27, 01:27:04,VALID,1006.73,VALID,0,VALID,104,VALID,0,VALID,24.0837,VALID,128,VALID,0.907422,
2012-12-27, 01:28:04,VALID,1006.7,VALID,0,VALID,104,VALID,0,VALID,24.0837,VALID,136,VALID,0.608203,
2012-12-27, 01:29:04,VALID,1006.71,VALID,0,VALID,104,VALID,0,VALID,24.1051,VALID,133,VALID,0.9125,
2012-12-27, 01:30:04,VALID,1006.67,VALID,0,VALID,104,VALID,0,VALID,24.0837,VALID,115,VALID,0.582812,
2012-12-27, 01:31:04,VALID,1006.67,VALID,0,VALID,104,VALID,0,VALID,24.0643,VALID,126,VALID,0.742188,
2012-12-27, 01:32:04,VALID,1006.64,VALID,0,VALID,104,VALID,0,VALID,24.0448,VALID,129,VALID,0.852734,
2012-12-27, 01:33:04,VALID,1006.62,VALID,0,VALID,104,VALID,0,VALID,24.0643,VALID,130,VALID,1.02617,
2012-12-27, 01:34:04,VALID,1006.61,VALID,0,VALID,104,VALID,0,VALID,24.0643,VALID,136,VALID,1.22031,
2012-12-27, 01:35:04,VALID,1006.58,VALID,0,VALID,104,VALID,0,VALID,24.0661,VALID,117,VALID,1.01133,
2012-12-27, 01:36:04,VALID,1006.59,VALID,0,VALID,104,VALID,0,VALID,24.0643,VALID,108,VALID,0.780469,
2012-12-27, 01:37:04,VALID,1006.58,VALID,0,VALID,104,VALID,0,VALID,24.0448,VALID,134,VALID,0.674219,
2012-12-27, 01:38:04,VALID,1006.59,VALID,0,VALID,104,VALID,0,VALID,24.0253,VALID,123,VALID,0.526953,
2012-12-27, 01:39:04,VALID,1006.58,VALID,0,VALID,104,VALID,0,VALID,24.0448,VALID,114,VALID,0.952344,
2012-12-27, 01:40:04,VALID,1006.58,VALID,0,VALID,104,VALID,0,VALID,24.0253,VALID,115,VALID,0.908203,
2012-12-27, 01:41:04,VALID,1006.6,VALID,0,VALID,104,VALID,0,VALID,24.0253,VALID,112,VALID,0.727344,
2012-12-27, 01:42:04,VALID,1006.57,VALID,0,VALID,104,VALID,0,VALID,24.0253,VALID,112,VALID,0.560156,
2012-12-27, 01:43:04,VALID,1006.55,VALID,0,VALID,104,VALID,0,VALID,24.0271,VALID,113,VALID,0.758984,
2012-12-27, 01:44:04,VALID,1006.53,VALID,0,VALID,104,VALID,0,VALID,23.9863,VALID,114,VALID,0.682422,
2012-12-27, 01:45:04,VALID,1006.52,VALID,0,VALID,104,VALID,0,VALID,24.0253,VALID,100,VALID,0.794531,
2012-12-27, 01:46:04,VALID,1006.52,VALID,0,VALID,104,VALID,0,VALID,24.0253,VALID,92,VALID,0.607031,
2012-12-27, 01:47:04,VALID,1006.5,VALID,0,VALID,104,VALID,0,VALID,24.0058,VALID,115,VALID,0.864844,
2012-12-27, 01:48:04,VALID,1006.48,VALID,0,VALID,104,VALID,0,VALID,23.9668,VALID,135,VALID,0.498047,
2012-12-27, 01:49:04,VALID,1006.49,VALID,0,VALID,104,VALID,0,VALID,24.0058,VALID,118,VALID,1.15625,
2012-12-27, 01:50:04,VALID,1006.45,VALID,0,VALID,104,VALID,0,VALID,23.9455,VALID,114,VALID,0.739844,
2012-12-27, 01:51:04,VALID,1006.47,VALID,0,VALID,104,VALID,0,VALID,23.9668,VALID,89,VALID,0.671484,
2012-12-27, 01:52:04,VALID,1006.46,VALID,0,VALID,104,VALID,0,VALID,23.9863,VALID,101,VALID,0.602734,
2012-12-27, 01:53:04,VALID,1006.43,VALID,0,VALID,104,VALID,0,VALID,23.9668,VALID,115,VALID,0.909766,
2012-12-27, 01:54:04,VALID,1006.41,VALID,0,VALID,104,VALID,0,VALID,23.9473,VALID,125,VALID,0.797656,
2012-12-27, 01:55:04,VALID,1006.39,VALID,0,VALID,104,VALID,0,VALID,23.9473,VALID,100,VALID,0.443359,
2012-12-27, 01:56:04,VALID,1006.38,VALID,0,VALID,104,VALID,0,VALID,23.9473,VALID,107,VALID,0.960938,
2012-12-27, 01:57:04,VALID,1006.38,VALID,0,VALID,104,VALID,0,VALID,23.9473,VALID,120,VALID,0.907812,
2012-12-27, 01:58:04,VALID,1006.39,VALID,0,VALID,104,VALID,0,VALID,23.9668,VALID,120,VALID,0.367188,
2012-12-27, 01:59:04,VALID,1006.4,VALID,0,VALID,104,VALID,0,VALID,23.9084,VALID,120,VALID,0.262891,
2012-12-27, 02:00:04,VALID,1006.37,VALID,0,VALID,104,VALID,0,VALID,23.9084,VALID,120,VALID,0.804297,
2012-12-27, 02:01:04,VALID,1006.38,VALID,0,VALID,104,VALID,0,VALID,23.8871,VALID,116,VALID,1.03711,
2012-12-27, 02:02:04,VALID,1006.38,VALID,0,VALID,104,VALID,0.112112,VALID,23.9084,VALID,116,VALID,0.696484,
2012-12-27, 02:03:04,VALID,1006.4,VALID,0,VALID,104,VALID,0,VALID,23.8889,VALID,117,VALID,0.723828,
2012-12-27, 02:04:04,VALID,1006.39,VALID,0,VALID,104,VALID,0,VALID,23.8694,VALID,118,VALID,0.734375,
2012-12-27, 02:05:04,VALID,1006.38,VALID,0,VALID,104,VALID,0,VALID,23.8889,VALID,118,VALID,0.20625,
2012-12-27, 02:06:04,VALID,1006.38,VALID,0,VALID,104,VALID,0,VALID,23.8871,VALID,119,VALID,0.225,
2012-12-27, 02:07:04,VALID,1006.35,VALID,0,VALID,104,VALID,0,VALID,23.8889,VALID,119,VALID,0.336719,
2012-12-27, 02:08:04,VALID,1006.36,VALID,0,VALID,104,VALID,0,VALID,23.8676,VALID,117,VALID,0.158203,
2012-12-27, 02:09:04,VALID,1006.31,VALID,0,VALID,104,VALID,0,VALID,23.8499,VALID,117,VALID,0.321094,
2012-12-27, 02:10:04,VALID,1006.35,VALID,0,VALID,104,VALID,0,VALID,23.8481,VALID,117,VALID,0.397656,
2012-12-27, 02:11:04,VALID,1006.34,VALID,0,VALID,104,VALID,0,VALID,23.8694,VALID,117,VALID,0.505469,
2012-12-27, 02:12:04,VALID,1006.33,VALID,0,VALID,104,VALID,0.112112,VALID,23.8481,VALID,117,VALID,0.687891,
2012-12-27, 02:13:04,VALID,1006.36,VALID,0,VALID,104,VALID,0,VALID,23.8304,VALID,116,VALID,0.257422,
2012-12-27, 02:14:04,VALID,1006.35,VALID,0,VALID,104,VALID,0,VALID,23.8304,VALID,124,VALID,0.809766,
2012-12-27, 02:15:04,VALID,1006.35,VALID,0,VALID,104,VALID,0,VALID,23.8499,VALID,124,VALID,0.119531,
2012-12-27, 02:16:04,VALID,1006.35,VALID,0,VALID,104,VALID,0,VALID,23.8304,VALID,124,VALID,0.0375,
2012-12-27, 02:17:04,VALID,1006.38,VALID,0,VALID,104,VALID,0,VALID,23.8091,VALID,124,VALID,0.310937,
2012-12-27, 02:18:04,VALID,1006.4,VALID,0,VALID,104,VALID,0,VALID,23.8499,VALID,124,VALID,0.376172,
2012-12-27, 02:19:04,VALID,1006.4,VALID,0,VALID,104,VALID,0,VALID,23.8109,VALID,121,VALID,0.341016,
2012-12-27, 02:20:04,VALID,1006.4,VALID,0,VALID,104,VALID,0,VALID,23.8091,VALID,123,VALID,0.529297,
2012-12-27, 02:21:04,VALID,1006.39,VALID,0,VALID,104,VALID,0,VALID,23.7896,VALID,124,VALID,0.629687,
2012-12-27, 02:22:04,VALID,1006.39,VALID,0,VALID,104,VALID,0,VALID,23.7896,VALID,125,VALID,0.0933594,
2012-12-27, 02:23:04,VALID,1006.41,VALID,0,VALID,104,VALID,0,VALID,23.8109,VALID,125,VALID,0.349609,
2012-12-27, 02:24:04,VALID,1006.4,VALID,0,VALID,104,VALID,0,VALID,23.7896,VALID,125,VALID,0.378516,
2012-12-27, 02:25:04,VALID,1006.37,VALID,0,VALID,104,VALID,0,VALID,23.7312,VALID,125,VALID,0.447266,
2012-12-27, 02:26:04,VALID,1006.36,VALID,0,VALID,104,VALID,0,VALID,23.7507,VALID,125,VALID,0.218359,
2012-12-27, 02:27:04,VALID,1006.33,VALID,0,VALID,104,VALID,0,VALID,23.772,VALID,125,VALID,0.188672,
2012-12-27, 02:28:04,VALID,1006.36,VALID,0,VALID,104,VALID,0,VALID,23.7507,VALID,125,VALID,0.136328,
2012-12-27, 02:29:04,VALID,1006.32,VALID,0,VALID,104,VALID,0,VALID,23.7914,VALID,125,VALID,0.108984,
2012-12-27, 02:30:04,VALID,1006.32,VALID,0,VALID,104,VALID,0,VALID,23.7525,VALID,125,VALID,0,
2012-12-27, 02:31:04,VALID,1006.3,VALID,0,VALID,104,VALID,0,VALID,23.7525,VALID,125,VALID,0.312891,
2012-12-27, 02:32:04,VALID,1006.31,VALID,0,VALID,104,VALID,0,VALID,23.7525,VALID,125,VALID,0.392188,
2012-12-27, 02:33:04,VALID,1006.3,VALID,0,VALID,104,VALID,0,VALID,23.7525,VALID,125,VALID,0.248828,
2012-12-27, 02:34:04,VALID,1006.29,VALID,0,VALID,104,VALID,0,VALID,23.733,VALID,125,VALID,0.354688,
2012-12-27, 02:35:04,VALID,1006.29,VALID,0,VALID,104,VALID,0,VALID,23.6922,VALID,125,VALID,0,
2012-12-27, 02:36:04,VALID,1006.28,VALID,0,VALID,104,VALID,0,VALID,23.7135,VALID,125,VALID,0,
2012-12-27, 02:37:04,VALID,1006.27,VALID,0,VALID,104,VALID,0,VALID,23.694,VALID,124,VALID,0.385156,
2012-12-27, 02:38:04,VALID,1006.26,VALID,0,VALID,104,VALID,0,VALID,23.7525,VALID,123,VALID,0.290234,
2012-12-27, 02:39:04,VALID,1006.27,VALID,0,VALID,104,VALID,0,VALID,23.7135,VALID,123,VALID,0.00664063,
2012-12-27, 02:40:04,VALID,1006.22,VALID,0,VALID,104,VALID,0,VALID,23.733,VALID,123,VALID,0.323828,
2012-12-27, 02:41:04,VALID,1006.21,VALID,0,VALID,104,VALID,0,VALID,23.7135,VALID,123,VALID,0.613672,
2012-12-27, 02:42:04,VALID,1006.21,VALID,0,VALID,104,VALID,0,VALID,23.733,VALID,123,VALID,0.567969,
2012-12-27, 02:43:04,VALID,1006.22,VALID,0,VALID,104,VALID,0,VALID,23.733,VALID,123,VALID,0.30625,
2012-12-27, 02:44:04,VALID,1006.19,VALID,0,VALID,104,VALID,0,VALID,23.7117,VALID,123,VALID,0.1625,
2012-12-27, 02:45:04,VALID,1006.16,VALID,0,VALID,104,VALID,0.112112,VALID,23.733,VALID,123,VALID,0.333984,
2012-12-27, 02:46:04,VALID,1006.14,VALID,0,VALID,104,VALID,0.112112,VALID,23.6922,VALID,123,VALID,0.589453,
2012-12-27, 02:47:04,VALID,1006.11,VALID,0,VALID,104,VALID,0,VALID,23.7117,VALID,123,VALID,0.554688,
2012-12-27, 02:48:04,VALID,1006.1,VALID,0,VALID,104,VALID,0,VALID,23.733,VALID,118,VALID,0.583594,
2012-12-27, 02:49:04,VALID,1006.09,VALID,0,VALID,104,VALID,0,VALID,23.7525,VALID,118,VALID,0.286328,
2012-12-27, 02:50:04,VALID,1006.1,VALID,0,VALID,104,VALID,0,VALID,23.7135,VALID,118,VALID,0.116797,
2012-12-27, 02:51:04,VALID,1006.08,VALID,0,VALID,104,VALID,0,VALID,23.694,VALID,117,VALID,0,
2012-12-27, 02:52:04,VALID,1006.07,VALID,0,VALID,104,VALID,0,VALID,23.6532,VALID,117,VALID,0.00078125,
2012-12-27, 02:53:04,VALID,1006.04,VALID,0,VALID,104,VALID,0,VALID,23.655,VALID,118,VALID,0.194922,
2012-12-27, 02:54:04,VALID,1006.07,VALID,0,VALID,104,VALID,0,VALID,23.6356,VALID,118,VALID,0,
2012-12-27, 02:55:04,VALID,1006.09,VALID,0,VALID,104,VALID,0,VALID,23.6161,VALID,118,VALID,0.207813,
2012-12-27, 02:56:04,VALID,1006.08,VALID,0,VALID,104,VALID,0,VALID,23.6161,VALID,118,VALID,0.333984,
2012-12-27, 02:57:04,VALID,1006.1,VALID,0,VALID,104,VALID,0,VALID,23.5186,VALID,118,VALID,0.470313,
2012-12-27, 02:58:04,VALID,1006.09,VALID,0,VALID,104,VALID,0,VALID,23.5753,VALID,118,VALID,0.442969,
2012-12-27, 02:59:04,VALID,1006.07,VALID,0,VALID,104,VALID,0,VALID,23.5186,VALID,118,VALID,0.298828,
2012-12-27, 03:00:04,VALID,1006.06,VALID,0,VALID,104,VALID,0.112112,VALID,23.5576,VALID,118,VALID,0.340625,
2012-12-27, 03:01:04,VALID,1006.06,VALID,0,VALID,104,VALID,0,VALID,23.5186,VALID,118,VALID,0.445313,
2012-12-27, 03:02:04,VALID,1006.05,VALID,0,VALID,104,VALID,0,VALID,23.4779,VALID,118,VALID,0.270312,
2012-12-27, 03:03:04,VALID,1006.08,VALID,0,VALID,104,VALID,0,VALID,23.4779,VALID,118,VALID,0.105469,
2012-12-27, 03:04:04,VALID,1006.09,VALID,0,VALID,104,VALID,0,VALID,23.4797,VALID,118,VALID,0.143359,
2012-12-27, 03:05:04,VALID,1006.08,VALID,0,VALID,104,VALID,0,VALID,23.4779,VALID,118,VALID,0,
2012-12-27, 03:06:04,VALID,1006.06,VALID,0,VALID,104,VALID,0,VALID,23.5186,VALID,118,VALID,0,
2012-12-27, 03:07:04,VALID,1006.07,VALID,0,VALID,104,VALID,0,VALID,23.4797,VALID,118,VALID,0,
2012-12-27, 03:08:04,VALID,1006.07,VALID,0,VALID,104,VALID,0,VALID,23.4992,VALID,118,VALID,0,
2012-12-27, 03:09:04,VALID,1006.08,VALID,0,VALID,104,VALID,0,VALID,23.4602,VALID,118,VALID,0,
2012-12-27, 03:10:04,VALID,1006.06,VALID,0,VALID,104,VALID,0,VALID,23.4194,VALID,118,VALID,0,
2012-12-27, 03:11:04,VALID,1006.09,VALID,0,VALID,104,VALID,0,VALID,23.4212,VALID,118,VALID,0,
2012-12-27, 03:12:04,VALID,1006.07,VALID,0,VALID,104,VALID,0,VALID,23.4017,VALID,118,VALID,0,
2012-12-27, 03:13:04,VALID,1006.13,VALID,0,VALID,104,VALID,0,VALID,23.4017,VALID,118,VALID,0,
2012-12-27, 03:14:04,VALID,1006.11,VALID,0,VALID,104,VALID,0,VALID,23.4017,VALID,118,VALID,0,
2012-12-27, 03:15:04,VALID,1006.13,VALID,0,VALID,104,VALID,0,VALID,23.4017,VALID,118,VALID,0,
2012-12-27, 03:16:04,VALID,1006.12,VALID,0,VALID,104,VALID,0,VALID,23.3823,VALID,118,VALID,0,
2012-12-27, 03:17:04,VALID,1006.13,VALID,0,VALID,104,VALID,0,VALID,23.4017,VALID,118,VALID,0,
2012-12-27, 03:18:04,VALID,1006.16,VALID,0,VALID,104,VALID,0,VALID,23.3628,VALID,118,VALID,0,
2012-12-27, 03:19:04,VALID,1006.15,VALID,0,VALID,104,VALID,0,VALID,23.3628,VALID,118,VALID,0.112109,
2012-12-27, 03:20:04,VALID,1006.18,VALID,0,VALID,104,VALID,0,VALID,23.3433,VALID,118,VALID,0.144922,
2012-12-27, 03:21:04,VALID,1006.19,VALID,0,VALID,104,VALID,0,VALID,23.3433,VALID,118,VALID,0.158984,
2012-12-27, 03:22:04,VALID,1006.2,VALID,0,VALID,104,VALID,0,VALID,23.3238,VALID,118,VALID,0.119922,
2012-12-27, 03:23:04,VALID,1006.26,VALID,0,VALID,104,VALID,0,VALID,23.3433,VALID,118,VALID,0.234766,
2012-12-27, 03:24:04,VALID,1006.26,VALID,0,VALID,104,VALID,0,VALID,23.3823,VALID,118,VALID,0.397266,
2012-12-27, 03:25:04,VALID,1006.3,VALID,0,VALID,104,VALID,0,VALID,23.3628,VALID,118,VALID,0.3375,
2012-12-27, 03:26:04,VALID,1006.32,VALID,0,VALID,104,VALID,0,VALID,23.4017,VALID,118,VALID,0.378906,
2012-12-27, 03:27:04,VALID,1006.31,VALID,0,VALID,104,VALID,0,VALID,23.4017,VALID,118,VALID,0.132422,
2012-12-27, 03:28:04,VALID,1006.3,VALID,0,VALID,104,VALID,0,VALID,23.4017,VALID,118,VALID,0,
2012-12-27, 03:29:04,VALID,1006.28,VALID,0,VALID,104,VALID,0,VALID,23.4212,VALID,118,VALID,0,
2012-12-27, 03:30:04,VALID,1006.27,VALID,0,VALID,104,VALID,0,VALID,23.4212,VALID,118,VALID,0.251172,
2012-12-27, 03:31:04,VALID,1006.27,VALID,0,VALID,104,VALID,0,VALID,23.4017,VALID,118,VALID,0.253906,
2012-12-27, 03:32:04,VALID,1006.29,VALID,0,VALID,104,VALID,0,VALID,23.4,VALID,118,VALID,0.281641,
2012-12-27, 03:33:04,VALID,1006.25,VALID,0,VALID,104,VALID,0,VALID,23.4017,VALID,118,VALID,0.385938,
2012-12-27, 03:34:04,VALID,1006.26,VALID,0,VALID,104,VALID,0,VALID,23.3823,VALID,118,VALID,0.492188,
2012-12-27, 03:35:04,VALID,1006.29,VALID,0,VALID,104,VALID,0,VALID,23.3805,VALID,118,VALID,0.292578,
2012-12-27, 03:36:04,VALID,1006.32,VALID,0,VALID,104,VALID,0,VALID,23.3823,VALID,118,VALID,0.21875,
2012-12-27, 03:37:04,VALID,1006.37,VALID,0,VALID,104,VALID,0,VALID,23.3628,VALID,118,VALID,0.191797,
2012-12-27, 03:38:04,VALID,1006.35,VALID,0,VALID,104,VALID,0,VALID,23.3823,VALID,118,VALID,0,
2012-12-27, 03:39:04,VALID,1006.38,VALID,0,VALID,104,VALID,0,VALID,23.4017,VALID,118,VALID,0,
2012-12-27, 03:40:04,VALID,1006.39,VALID,0,VALID,104,VALID,0,VALID,23.3628,VALID,118,VALID,0,
2012-12-27, 03:41:04,VALID,1006.39,VALID,0,VALID,104,VALID,0,VALID,23.3823,VALID,118,VALID,0,
2012-12-27, 03:42:04,VALID,1006.36,VALID,0,VALID,104,VALID,0,VALID,23.3823,VALID,118,VALID,0,
2012-12-27, 03:43:04,VALID,1006.34,VALID,0,VALID,104,VALID,0,VALID,23.3433,VALID,118,VALID,0,
2012-12-27, 03:44:04,VALID,1006.3,VALID,0,VALID,104,VALID,0,VALID,23.3433,VALID,118,VALID,0.309375,
2012-12-27, 03:45:04,VALID,1006.28,VALID,0,VALID,104,VALID,0,VALID,23.322,VALID,118,VALID,0.261719,
2012-12-27, 03:46:04,VALID,1006.26,VALID,0,VALID,104,VALID,0,VALID,23.3238,VALID,118,VALID,0.369141,
2012-12-27, 03:47:04,VALID,1006.27,VALID,0,VALID,104,VALID,0,VALID,23.3628,VALID,118,VALID,0.261328,
2012-12-27, 03:48:04,VALID,1006.24,VALID,0,VALID,104,VALID,0,VALID,23.3823,VALID,118,VALID,0.234766,
2012-12-27, 03:49:04,VALID,1006.27,VALID,0,VALID,104,VALID,0,VALID,23.3823,VALID,118,VALID,0.273047,
2012-12-27, 03:50:04,VALID,1006.31,VALID,0,VALID,104,VALID,0,VALID,23.4017,VALID,118,VALID,0.194531,
2012-12-27, 03:51:04,VALID,1006.32,VALID,0,VALID,104,VALID,0,VALID,23.3823,VALID,118,VALID,0.241016,
2012-12-27, 03:52:04,VALID,1006.33,VALID,0,VALID,104,VALID,0,VALID,23.4407,VALID,118,VALID,0.263281,
2012-12-27, 03:53:04,VALID,1006.36,VALID,0,VALID,104,VALID,0,VALID,23.4407,VALID,118,VALID,0.0484375,
2012-12-27, 03:54:04,VALID,1006.36,VALID,0,VALID,104,VALID,0,VALID,23.4602,VALID,118,VALID,0.129688,